| time (UTC) | temp C | wind direction | speed KPH | gust KPH | rain 1hr cm | rain 24hr cm | rain mn cm | humidity % | barometer mb |
| 20260508004544 | 11 | 85 | 11.3 | 16.1 | 0.00 | 0.00 | 0.00 | 87 | 1016.5 |
| 20260508003057 | 11 | 330 | 11.3 | 16.1 | 0.00 | 0.00 | 0.00 | 87 | 1016.5 |
| 20260508001545 | 12 | 107 | 4.8 | 11.3 | 0.00 | 0.00 | 0.00 | 86 | 1016.5 |
| 20260508000045 | 12 | 92 | 4.8 | 9.7 | 0.00 | 0.00 | 0.00 | 84 | 1016.5 |
| 20260507234540 | 12 | 96 | 4.8 | 9.7 | 0.00 | 0.00 | 0.00 | 83 | 1016.6 |
| 20260507233044 | 13 | 118 | 3.2 | 9.7 | 0.00 | 0.00 | 0.00 | 83 | 1016.8 |
| 20260507231544 | 13 | 128 | 4.8 | 9.7 | 0.00 | 0.00 | 0.00 | 84 | 1016.7 |
| 20260507230044 | 12 | 87 | 8.0 | 12.9 | 0.00 | 0.00 | 0.00 | 86 | 1016.7 |
| 20260507224600 | 12 | 94 | 9.7 | 16.1 | 0.00 | 0.00 | 0.00 | 86 | 1016.7 |
| 20260507223050 | 12 | 330 | 8.0 | 12.9 | 0.00 | 0.00 | 0.00 | 85 | 1016.9 |
| 20260507221539 | 12 | 67 | 4.8 | 9.7 | 0.00 | 0.00 | 0.00 | 85 | 1016.9 |
| 20260507220044 | 13 | 193 | 3.2 | 6.4 | 0.00 | 0.00 | 0.00 | 86 | 1016.8 |
| 20260507214542 | 13 | 194 | 1.6 | 4.8 | 0.00 | 0.00 | 0.00 | 86 | 1016.7 |
| 20260507213043 | 14 | 0 | 0.0 | 3.2 | 0.00 | 0.00 | 0.00 | 86 | 1016.7 |
| 20260507211554 | 14 | 193 | 3.2 | 6.4 | 0.00 | 0.00 | 0.00 | 86 | 1016.6 |
| 20260507210041 | 13 | 0 | 0.0 | 1.6 | 0.00 | 0.00 | 0.00 | 86 | 1016.6 |
| 20260507204549 | 13 | 0 | 0.0 | 4.8 | 0.00 | 0.00 | 0.00 | 87 | 1016.5 |
| 20260507203047 | 13 | 193 | 3.2 | 6.4 | 0.00 | 0.00 | 0.00 | 87 | 1016.4 |
| 20260507201543 | 13 | 0 | 0.0 | 0.0 | 0.00 | 0.00 | 0.00 | 87 | 1016.2 |
| 20260507194541 | 14 | 193 | 3.2 | 6.4 | 0.00 | 0.00 | 0.00 | 86 | 1015.9 |
| 20260507193039 | 14 | 193 | 3.2 | 4.8 | 0.00 | 0.00 | 0.00 | 86 | 1015.6 |
| 20260507191551 | 14 | 0 | 0.0 | 3.2 | 0.00 | 0.00 | 0.00 | 85 | 1015.6 |
| 20260507190045 | 14 | 194 | 1.6 | 8.0 | 0.00 | 0.00 | 0.00 | 85 | 1015.4 |
| 20260507184543 | 15 | 194 | 3.2 | 4.8 | 0.00 | 0.00 | 0.00 | 84 | 1015.2 |
| 20260507183043 | 15 | 193 | 0.0 | 3.2 | 0.00 | 0.00 | 0.00 | 82 | 1015.0 |
| 20260507181542 | 15 | 193 | 1.6 | 4.8 | 0.00 | 0.00 | 0.00 | 81 | 1015.1 |
| 20260507180045 | 16 | 193 | 1.6 | 4.8 | 0.00 | 0.00 | 0.00 | 77 | 1015.0 |
| 20260507174549 | 16 | 0 | 0.0 | 4.8 | 0.00 | 0.10 | 0.00 | 77 | 1014.8 |
| 20260507173044 | 16 | 0 | 0.0 | 4.8 | 0.00 | 0.10 | 0.00 | 77 | 1014.8 |
| 20260507171542 | 16 | 0 | 0.0 | 9.7 | 0.00 | 0.10 | 0.00 | 75 | 1014.6 |
| 20260507170043 | 16 | 0 | 4.8 | 11.3 | 0.00 | 0.10 | 0.00 | 76 | 1014.7 |
| 20260507164541 | 16 | 156 | 3.2 | 12.9 | 0.00 | 0.15 | 0.00 | 79 | 1014.7 |
| 20260507163039 | 15 | 224 | 9.7 | 14.5 | 0.00 | 0.15 | 0.00 | 79 | 1014.9 |
| 20260507161545 | 15 | 249 | 4.8 | 14.5 | 0.00 | 0.15 | 0.00 | 79 | 1014.6 |
| 20260507160044 | 15 | 224 | 9.7 | 17.7 | 0.00 | 0.15 | 0.00 | 79 | 1015.0 |
| 20260507154544 | 16 | 189 | 11.3 | 25.7 | 0.00 | 0.15 | 0.00 | 78 | 1014.6 |
| 20260507153042 | 17 | 241 | 11.3 | 27.4 | 0.00 | 0.15 | 0.00 | 72 | 1014.5 |
| 20260507151543 | 17 | 254 | 12.9 | 25.7 | 0.00 | 0.15 | 0.00 | 68 | 1014.2 |
| 20260507150038 | 17 | 209 | 8.0 | 25.7 | 0.00 | 0.15 | 0.00 | 60 | 1013.8 |
| 20260507144538 | 17 | 219 | 9.7 | 27.4 | 0.00 | 0.15 | 0.00 | 62 | 1013.7 |
| 20260507143044 | 17 | 188 | 17.7 | 27.4 | 0.00 | 0.15 | 0.00 | 69 | 1013.7 |
| 20260507141543 | 17 | 203 | 14.5 | 24.1 | 0.00 | 0.15 | 0.00 | 72 | 1013.7 |
| 20260507140056 | 17 | 202 | 16.1 | 24.1 | 0.00 | 0.15 | 0.00 | 74 | 1013.9 |
| 20260507134541 | 18 | 214 | 12.9 | 19.3 | 0.00 | 0.15 | 0.00 | 77 | 1014.0 |
| 20260507133040 | 18 | 239 | 12.9 | 20.9 | 0.00 | 0.15 | 0.00 | 77 | 1013.9 |
| 20260507131547 | 17 | 235 | 12.9 | 22.5 | 0.00 | 0.15 | 0.00 | 78 | 1013.9 |
| 20260507130043 | 18 | 245 | 16.1 | 24.1 | 0.00 | 0.15 | 0.00 | 78 | 1014.1 |
| 20260507124544 | 18 | 243 | 12.9 | 24.1 | 0.00 | 0.18 | 0.00 | 78 | 1014.2 |
| 20260507123043 | 17 | 246 | 16.1 | 27.4 | 0.00 | 0.18 | 0.00 | 77 | 1014.0 |
| 20260507121540 | 17 | 243 | 16.1 | 24.1 | 0.00 | 0.18 | 0.00 | 77 | 1014.1 |
| 20260507120039 | 17 | 231 | 14.5 | 25.7 | 0.00 | 0.18 | 0.00 | 76 | 1014.1 |
| 20260507114538 | 17 | 246 | 16.1 | 25.7 | 0.00 | 0.18 | 0.00 | 76 | 1014.2 |
| 20260507113044 | 17 | 209 | 12.9 | 25.7 | 0.00 | 0.18 | 0.00 | 76 | 1014.3 |
| 20260507111547 | 17 | 219 | 11.3 | 25.7 | 0.00 | 0.18 | 0.00 | 77 | 1014.3 |
| 20260507110049 | 17 | 257 | 14.5 | 25.7 | 0.00 | 0.18 | 0.00 | 76 | 1014.5 |
| 20260507104541 | 16 | 205 | 12.9 | 27.4 | 0.00 | 0.25 | 0.00 | 77 | 1014.5 |
| 20260507103039 | 17 | 189 | 12.9 | 24.1 | 0.00 | 0.25 | 0.00 | 77 | 1014.7 |
| 20260507101600 | 16 | 206 | 14.5 | 30.6 | 0.00 | 0.25 | 0.00 | 78 | 1014.7 |
| 20260507100045 | 17 | 226 | 19.3 | 32.2 | 0.00 | 0.25 | 0.00 | 78 | 1014.7 |
| 20260507094554 | 17 | 216 | 12.9 | 20.9 | 0.00 | 0.56 | 0.00 | 79 | 1014.5 |
| 20260507093042 | 17 | 233 | 14.5 | 25.7 | 0.00 | 0.56 | 0.00 | 81 | 1014.4 |
| 20260507091553 | 16 | 247 | 16.1 | 27.4 | 0.00 | 0.56 | 0.00 | 81 | 1014.4 |
| 20260507090051 | 16 | 280 | 12.9 | 29.0 | 0.00 | 0.56 | 0.00 | 81 | 1014.3 |
| 20260507084538 | 16 | 247 | 16.1 | 24.1 | 0.00 | 0.97 | 0.00 | 82 | 1014.3 |
| 20260507083045 | 16 | 218 | 6.4 | 24.1 | 0.00 | 0.97 | 0.00 | 83 | 1014.3 |
| 20260507081553 | 16 | 168 | 6.4 | 25.7 | 0.00 | 0.97 | 0.00 | 86 | 1014.1 |
| 20260507080042 | 15 | 193 | 8.0 | 24.1 | 0.00 | 0.97 | 0.00 | 86 | 1014.0 |
| 20260507074541 | 15 | 181 | 14.5 | 24.1 | 0.00 | 1.30 | 0.00 | 86 | 1013.8 |
| 20260507073054 | 15 | 175 | 9.7 | 24.1 | 0.00 | 1.30 | 0.00 | 86 | 1013.8 |
| 20260507071538 | 15 | 0 | 14.5 | 32.2 | 0.00 | 1.30 | 0.00 | 88 | 1013.7 |
| 20260507070126 | 15 | 173 | 9.7 | 17.7 | 0.00 | 1.30 | 0.00 | 88 | 1013.5 |
| 20260507064550 | 15 | 210 | 6.4 | 19.3 | 0.00 | 1.57 | 0.00 | 89 | 1013.4 |
| 20260507063044 | 15 | 190 | 8.0 | 19.3 | 0.00 | 1.57 | 0.00 | 91 | 1013.2 |
| 20260507061543 | 14 | 179 | 4.8 | 19.3 | 0.00 | 1.57 | 0.00 | 91 | 1013.3 |
| 20260507060043 | 14 | 182 | 6.4 | 12.9 | 0.00 | 1.57 | 0.00 | 92 | 1013.2 |
| 20260507054546 | 14 | 204 | 4.8 | 14.5 | 0.00 | 1.57 | 0.00 | 92 | 1013.2 |
| 20260507053042 | 13 | 172 | 8.0 | 14.5 | 0.00 | 1.57 | 0.00 | 93 | 1012.9 |
| 20260507051539 | 13 | 145 | 1.6 | 14.5 | 0.00 | 1.57 | 0.00 | 93 | 1012.9 |
| 20260507050044 | 13 | 158 | 6.4 | 16.1 | 0.00 | 1.57 | 0.00 | 93 | 1012.7 |
| 20260507044545 | 13 | 146 | 8.0 | 12.9 | 0.00 | 1.57 | 0.00 | 93 | 1012.5 |
| 20260507043041 | 13 | 167 | 8.0 | 16.1 | 0.00 | 1.57 | 0.00 | 93 | 1012.3 |
| 20260507041538 | 13 | 166 | 8.0 | 14.5 | 0.00 | 1.57 | 0.00 | 93 | 1012.3 |
| 20260507040049 | 13 | 175 | 8.0 | 11.3 | 0.00 | 1.57 | 0.00 | 93 | 1012.1 |
| 20260507034547 | 13 | 137 | 6.4 | 14.5 | 0.00 | 1.57 | 0.00 | 93 | 1012.0 |
| 20260507033044 | 13 | 161 | 8.0 | 19.3 | 0.00 | 1.57 | 0.00 | 93 | 1011.9 |
| 20260507031542 | 13 | 183 | 6.4 | 14.5 | 0.00 | 1.57 | 0.00 | 93 | 1012.1 |
| 20260507030047 | 13 | 209 | 4.8 | 14.5 | 0.00 | 1.57 | 0.00 | 93 | 1012.1 |
| 20260507024545 | 13 | 181 | 4.8 | 16.1 | 0.00 | 1.57 | 0.00 | 93 | 1012.0 |
| 20260507023037 | 13 | 183 | 1.6 | 14.5 | 0.00 | 1.57 | 0.00 | 93 | 1012.0 |
| 20260507021619 | 13 | 204 | 3.2 | 16.1 | 0.00 | 1.57 | 0.00 | 93 | 1012.1 |
| 20260507020040 | 13 | 195 | 3.2 | 19.3 | 0.00 | 1.57 | 0.00 | 92 | 1012.0 |
| 20260507014552 | 13 | 168 | 4.8 | 19.3 | 0.00 | 1.57 | 0.00 | 92 | 1012.1 |
| 20260507013047 | 13 | 330 | 4.8 | 22.5 | 0.00 | 1.57 | 0.00 | 92 | 1012.0 |
| 20260507011545 | 13 | 247 | 6.4 | 20.9 | 0.00 | 1.57 | 0.00 | 92 | 1012.0 |
| 20260507010050 | 13 | 154 | 4.8 | 20.9 | 0.00 | 1.57 | 0.00 | 92 | 1012.1 |